Oakland, MD

6:58 AM EDT on June 24, 2017 (GMT -0400)
Oakland

Weather History for K2G4 - August, 2014

Change the Weather History Date:

Monday, August 4, 2014

  Actual Average (KMGW) Record (KMGW)
Temperature  
Mean Temperature 66 °F -  
Max Temperature 73 °F 81 °F 97 °F (1955)
Min Temperature 59 °F 63 °F 47 °F (1965)
Cooling Degree Days 1    
Growing Degree Days 16 (Base 50)    
Moisture  
Dew Point 54 °F    
Average Humidity 63    
Maximum Humidity 94    
Minimum Humidity 36    
Precipitation  
Precipitation 0.00 in - - ()
Sea Level Pressure  
Sea Level Pressure 30.20 in    
Wind  
Wind Speed 3 mph (WNW)    
Max Wind Speed 7 mph    
Max Gust Speed -    
Visibility 8 miles    
Events Fog    
Averages and records for this station are not official NWS values.
T = Trace of Precipitation, MM = Missing Value Source: NWS Daily Summary

Daily Weather History Graph

Daily Weather History Graph

Search for Another Location

Airport or City:

Trip Planner

Search our weather history database for the weather conditions in past years. The results will help you decide how hot, cold, wet, or windy it might be!

Date:

Astronomy

Aug. 04, 2014 Rise Set
Actual Time 6:19 AM EDT 8:26 PM EDT
Civil Twilight 5:49 AM EDT 8:56 PM EDT
Nautical Twilight 5:13 AM EDT 9:32 PM EDT
Astronomical Twilight 4:33 AM EDT 10:12 PM EDT
Moon 2:37 PM EDT (8/4) 12:24 AM EDT (8/4)
Length of Visible Light 15h 06m
Length of Day
14h 07m
First Quarter, 57% of the Moon is Illuminated
Aug 4
First Quarter
Aug 10
Full
Aug 17
Last Quarter
Aug 25
New
Sep 2
First Quarter

Hourly Weather History & Observations

Time (EDT) Temp. Dew Point Humidity Pressure Visibility Wind Dir Wind Speed Gust Speed Precip Events Conditions
12:45 AM 59.0 °F - N/A% 30.19 in 2.0 mi West 5.8 mph - N/A   Scattered Clouds
1:05 AM 59.0 °F - N/A% 30.19 in 0.5 mi West 3.5 mph - N/A Fog Fog
1:25 AM 59.0 °F - N/A% 30.19 in 0.5 mi West 4.6 mph - N/A Fog Fog
1:45 AM 59.0 °F - N/A% 30.18 in 3.0 mi West 4.6 mph - N/A   Scattered Clouds
2:05 AM 59.0 °F - N/A% 30.18 in 2.5 mi West 4.6 mph - N/A   Clear
2:45 AM 59.0 °F - N/A% 30.18 in 4.0 mi West 4.6 mph - N/A   Haze
3:05 AM 59.0 °F - N/A% 30.18 in 7.0 mi Calm Calm - N/A   Clear
4:05 AM 59.0 °F - N/A% 30.18 in 5.0 mi Calm Calm - N/A   Haze
4:25 AM 59.0 °F - N/A% 30.18 in 5.0 mi Calm Calm - N/A   Haze
5:05 AM 59.0 °F - N/A% 30.18 in 7.0 mi West 3.5 mph - N/A   Mostly Cloudy
5:25 AM 59.0 °F - N/A% 30.18 in 7.0 mi West 3.5 mph - N/A   Scattered Clouds
6:05 AM 59.0 °F - N/A% 30.19 in 7.0 mi West 3.5 mph - N/A   Scattered Clouds
6:25 AM 59.0 °F - N/A% 30.19 in 5.0 mi West 3.5 mph - N/A   Haze
7:05 AM 59.0 °F - N/A% 30.20 in 4.0 mi Calm Calm - N/A   Haze
7:25 AM 59.0 °F - N/A% 30.20 in 5.0 mi West 4.6 mph - N/A   Haze
8:05 AM 60.8 °F - N/A% 30.21 in 5.0 mi WNW 3.5 mph - N/A   Haze
8:25 AM 60.8 °F - N/A% 30.22 in 7.0 mi West 3.5 mph - N/A   Clear
8:45 AM 60.8 °F - N/A% 30.22 in 5.0 mi West 4.6 mph - N/A   Haze
9:05 AM 60.8 °F - N/A% 30.23 in 4.0 mi West 4.6 mph - N/A   Haze
9:25 AM 62.6 °F - N/A% 30.23 in 5.0 mi WNW 3.5 mph - N/A   Haze
9:45 AM 62.6 °F - N/A% 30.24 in 7.0 mi West 3.5 mph - N/A   Mostly Cloudy
10:05 AM 62.6 °F - N/A% 30.23 in 7.0 mi WNW 3.5 mph - N/A   Mostly Cloudy
10:25 AM 64.4 °F 62.6 °F 94% 30.24 in 10.0 mi North 4.6 mph - N/A   Mostly Cloudy
11:25 AM 68.0 °F 60.8 °F 78% 30.24 in 10.0 mi WNW 3.5 mph - N/A   Scattered Clouds
11:45 AM 68.0 °F 60.8 °F 78% 30.24 in 10.0 mi NW 4.6 mph - N/A   Scattered Clouds
12:05 PM 69.8 °F 59.0 °F 68% 30.23 in 10.0 mi NNW 4.6 mph - N/A   Scattered Clouds
12:25 PM 69.8 °F 55.4 °F 60% 30.23 in 10.0 mi WNW 3.5 mph - N/A   Scattered Clouds
1:05 PM 71.6 °F 53.6 °F 53% 30.22 in 10.0 mi WNW 4.6 mph - N/A   Clear
1:45 PM 71.6 °F 51.8 °F 50% 30.22 in 10.0 mi Calm Calm - N/A   Clear
2:05 PM 71.6 °F 51.8 °F 50% 30.22 in 10.0 mi Calm Calm - N/A   Clear
2:25 PM 71.6 °F 50.0 °F 46% 30.21 in 10.0 mi West 3.5 mph - N/A   Clear
2:50 PM 73.4 °F 51.8 °F 47% 30.21 in 10.0 mi WNW 4.6 mph - N/A   Clear
3:30 PM 73.4 °F 50.0 °F 44% 30.20 in 10.0 mi WNW 4.6 mph - N/A   Clear
3:50 PM 73.4 °F 48.2 °F 41% 30.19 in 10.0 mi West 6.9 mph - N/A   Clear
4:10 PM 73.4 °F 44.6 °F 36% 30.19 in 10.0 mi NW 4.6 mph - N/A   Clear
5:10 PM 73.4 °F 46.4 °F 38% 30.18 in 10.0 mi NW 3.5 mph - N/A   Clear
5:30 PM 73.4 °F 50.0 °F 44% 30.18 in 10.0 mi NW 3.5 mph - N/A   Clear
5:50 PM 71.6 °F 50.0 °F 46% 30.18 in 10.0 mi NW 4.6 mph - N/A   Clear
6:10 PM 71.6 °F 51.8 °F 50% 30.19 in 10.0 mi NW 4.6 mph - N/A   Clear
6:30 PM 71.6 °F 51.8 °F 50% 30.18 in 10.0 mi NNW 3.5 mph - N/A   Clear
6:50 PM 71.6 °F 53.6 °F 53% 30.18 in 10.0 mi NNW 4.6 mph - N/A   Clear
7:10 PM 69.8 °F 55.4 °F 60% 30.19 in 10.0 mi Calm Calm - N/A   Clear
7:30 PM 69.8 °F 55.4 °F 60% 30.19 in 10.0 mi Calm Calm - N/A   Clear
7:50 PM 68.0 °F 55.4 °F 64% 30.19 in 10.0 mi Calm Calm - N/A   Clear
8:10 PM 66.2 °F 55.4 °F 68% 30.19 in 10.0 mi Calm Calm - N/A   Clear
8:30 PM 66.2 °F 55.4 °F 68% 30.19 in 10.0 mi Calm Calm - N/A   Clear
8:50 PM 64.4 °F 55.4 °F 73% 30.19 in 10.0 mi Calm Calm - N/A   Clear
9:10 PM 64.4 °F 57.2 °F 77% 30.18 in 10.0 mi Calm Calm - N/A   Clear
9:30 PM 64.4 °F 57.2 °F 77% 30.19 in 10.0 mi Calm Calm - N/A   Clear
9:50 PM 64.4 °F 59.0 °F 83% 30.19 in 10.0 mi Calm Calm - N/A   Clear
10:10 PM 64.4 °F 59.0 °F 83% 30.20 in 10.0 mi North 3.5 mph - N/A   Clear
10:30 PM 64.4 °F 59.0 °F 83% 30.20 in 10.0 mi Calm Calm - N/A   Clear
10:50 PM 64.4 °F 59.0 °F 83% 30.20 in 10.0 mi East 3.5 mph - N/A   Clear
11:10 PM 62.6 °F 57.2 °F 82% 30.20 in 10.0 mi ENE 3.5 mph - N/A   Clear
11:30 PM 64.4 °F 55.4 °F 73% 30.21 in 10.0 mi Calm Calm - N/A   Clear
11:50 PM 62.6 °F 53.6 °F 72% 30.20 in 10.0 mi ENE 3.5 mph - N/A   Clear